FW4245 Weather Reports


Display with metric or nautical units.
time (UTC)temp
F
wind
direction
speed
MPH
gust
MPH
rain 1hr
in
rain 24hr
in
rain mn
in
humidity
%
barometer
mb
20260503224032 63 314 3.0 8.0 0.00 0.00 0.00 35 1016.5
20260503224009 63 297 4.0 8.0 0.00 0.00 0.00 35 1016.1
20260503223531 63 296 4.0 8.0 0.00 0.00 0.00 35 1016.4
20260503223507 63 267 4.0 8.0 0.00 0.00 0.00 35 1016.0
20260503223031 62 356 2.0 10.0 0.00 0.00 0.00 36 1016.3
20260503223005 62 310 3.0 11.0 0.00 0.00 0.00 36 1016.1
20260503222530 62 287 6.0 11.0 0.00 0.00 0.00 35 1016.4
20260503222504 62 298 7.0 11.0 0.00 0.00 0.00 34 1016.0
20260503222032 63 308 5.0 11.0 0.00 0.00 0.00 36 1016.5
20260503222004 63 297 5.0 11.0 0.00 0.00 0.00 35 1016.0
20260503221529 63 292 4.0 11.0 0.00 0.00 0.00 36 1016.4
20260503221509 63 320 4.0 10.0 0.00 0.00 0.00 35 1015.9
20260503221029 63 292 5.0 10.0 0.00 0.00 0.00 34 1016.4
20260503221007 63 279 6.0 10.0 0.00 0.00 0.00 33 1015.9
20260503220533 64 330 1.0 8.0 0.00 0.00 0.00 35 1016.4
20260503220503 64 3 2.0 8.0 0.00 0.00 0.00 34 1015.9
20260503220029 64 327 2.0 8.0 0.00 0.00 0.00 36 1016.4
20260503220012 64 12 3.0 8.0 0.00 0.00 0.00 34 1015.9
20260503215528 63 297 4.0 9.0 0.00 0.00 0.00 36 1016.4
20260503215507 63 293 5.0 9.0 0.00 0.00 0.00 35 1015.9
20260503215027 63 16 4.0 9.0 0.00 0.00 0.00 35 1016.3
20260503215002 63 286 5.0 9.0 0.00 0.00 0.00 35 1015.9
20260503214526 63 293 4.0 8.0 0.00 0.00 0.00 34 1016.4
20260503214522 63 281 4.0 8.0 0.00 0.00 0.00 33 1015.9
20260503214026 63 252 3.0 7.0 0.00 0.00 0.00 35 1016.4
20260503214007 63 301 3.0 7.0 0.00 0.00 0.00 35 1015.9
20260503213526 63 337 0.0 12.0 0.00 0.00 0.00 35 1016.3
20260503213507 63 36 0.0 12.0 0.00 0.00 0.00 35 1015.9
20260503213027 63 339 4.0 12.0 0.00 0.00 0.00 35 1016.3
20260503213012 63 356 4.0 12.0 0.00 0.00 0.00 34 1015.9
20260503212525 63 353 3.0 10.0 0.00 0.00 0.00 35 1016.3
20260503212508 63 28 3.0 10.0 0.00 0.00 0.00 35 1015.9
20260503212026 64 335 3.0 8.0 0.00 0.00 0.00 35 1016.3
20260503212005 64 297 3.0 8.0 0.00 0.00 0.00 35 1015.9
20260503211525 64 303 1.0 9.0 0.00 0.00 0.00 36 1016.3
20260503211513 64 302 2.0 11.0 0.00 0.00 0.00 35 1015.9
20260503211029 63 342 2.0 12.0 0.00 0.00 0.00 37 1016.3
20260503211007 63 295 2.0 12.0 0.00 0.00 0.00 35 1015.9
20260503210529 63 325 5.0 12.0 0.00 0.00 0.00 36 1016.2
20260503210503 63 326 5.0 12.0 0.00 0.00 0.00 35 1015.9
20260503210037 63 287 5.0 10.0 0.00 0.00 0.00 36 1015.8
20260503210024 63 327 4.0 10.0 0.00 0.00 0.00 36 1016.3
20260503205524 63 323 4.0 10.0 0.00 0.00 0.00 35 1016.1
20260503205509 63 32 5.0 10.0 0.00 0.00 0.00 34 1015.7
20260503205024 63 298 3.0 14.0 0.00 0.00 0.00 37 1016.2
20260503205003 63 299 3.0 14.0 0.00 0.00 0.00 36 1015.7
20260503204528 63 80 2.0 14.0 0.00 0.00 0.00 37 1016.2
20260503204516 63 322 2.0 14.0 0.00 0.00 0.00 37 1015.8
20260503204024 63 329 4.0 9.0 0.00 0.00 0.00 35 1016.3
20260503204013 63 285 4.0 9.0 0.00 0.00 0.00 34 1015.8
20260503203525 63 272 2.0 9.0 0.00 0.00 0.00 36 1016.3
20260503203502 63 306 3.0 9.0 0.00 0.00 0.00 35 1015.8
20260503203024 63 292 3.0 12.0 0.00 0.00 0.00 36 1016.2
20260503203015 63 279 3.0 12.0 0.00 0.00 0.00 37 1015.9
20260503202522 63 311 5.0 12.0 0.00 0.00 0.00 37 1016.2
20260503202508 63 307 6.0 12.0 0.00 0.00 0.00 35 1016.0
20260503202022 64 289 3.0 10.0 0.00 0.00 0.00 36 1016.3
20260503202004 64 309 3.0 8.0 0.00 0.00 0.00 35 1015.9
20260503201524 63 339 2.0 9.0 0.00 0.00 0.00 36 1016.0
20260503201521 63 302 2.0 9.0 0.00 0.00 0.00 36 1016.3
20260503201020 63 297 2.0 9.0 0.00 0.00 0.00 37 1016.3
20260503201009 63 290 3.0 9.0 0.00 0.00 0.00 37 1016.0
20260503200519 62 31 2.0 14.0 0.00 0.00 0.00 40 1016.3
20260503200505 62 10 3.0 14.0 0.00 0.00 0.00 38 1016.0
20260503200020 62 292 5.0 14.0 0.00 0.00 0.00 38 1016.5
20260503200017 62 267 6.0 14.0 0.00 0.00 0.00 38 1016.1
20260503195519 62 299 7.0 12.0 0.00 0.00 0.00 39 1016.5
20260503195507 62 290 7.0 12.0 0.00 0.00 0.00 39 1016.1
20260503195018 62 304 6.0 12.0 0.00 0.00 0.00 37 1016.4
20260503195006 62 308 7.0 12.0 0.00 0.00 0.00 37 1016.1
20260503194519 63 314 5.0 12.0 0.00 0.00 0.00 40 1016.2
20260503194517 63 287 5.0 12.0 0.00 0.00 0.00 38 1016.4
20260503194016 62 318 4.0 15.0 0.00 0.00 0.00 39 1016.5
20260503194007 62 322 5.0 15.0 0.00 0.00 0.00 38 1016.3
20260503193519 62 303 4.0 15.0 0.00 0.00 0.00 38 1016.6
20260503193504 62 290 4.0 15.0 0.00 0.00 0.00 37 1016.2
20260503193034 62 268 5.0 10.0 0.00 0.00 0.00 39 1016.6
20260503193022 62 299 6.0 10.0 0.00 0.00 0.00 38 1016.4
20260503192515 62 336 3.0 12.0 0.00 0.00 0.00 40 1016.7
20260503192504 62 328 3.0 14.0 0.00 0.00 0.00 39 1016.4
20260503192017 61 43 3.0 14.0 0.00 0.00 0.00 42 1016.9
20260503192005 61 96 3.0 14.0 0.00 0.00 0.00 40 1016.5
20260503191522 62 301 6.0 14.0 0.00 0.00 0.00 38 1016.6
20260503191515 62 309 6.0 14.0 0.00 0.00 0.00 39 1016.9
20260503191016 61 311 8.0 13.0 0.00 0.00 0.00 39 1016.9
20260503191003 61 296 9.0 13.0 0.00 0.00 0.00 38 1016.6
20260503190513 61 300 2.0 12.0 0.00 0.00 0.00 41 1017.0
20260503190506 61 281 2.0 12.0 0.00 0.00 0.00 41 1016.7
20260503190023 61 309 5.0 12.0 0.00 0.00 0.00 41 1016.8
20260503190014 61 290 5.0 12.0 0.00 0.00 0.00 39 1017.1
20260503185512 61 309 3.0 15.0 0.00 0.00 0.00 41 1017.2
20260503185504 61 300 4.0 15.0 0.00 0.00 0.00 41 1016.9
20260503185017 61 282 6.0 15.0 0.00 0.00 0.00 41 1017.3
20260503185009 61 307 7.0 15.0 0.00 0.00 0.00 40 1016.9
20260503184527 61 328 10.0 15.0 0.00 0.00 0.00 39 1016.8
20260503184520 61 299 9.0 15.0 0.00 0.00 0.00 40 1017.1
20260503184012 61 303 3.0 11.0 0.00 0.00 0.00 40 1017.1
20260503184006 61 304 3.0 11.0 0.00 0.00 0.00 40 1016.9
20260503183512 61 292 4.0 11.0 0.00 0.00 0.00 41 1017.1
20260503183508 61 346 5.0 11.0 0.00 0.00 0.00 40 1017.0
20260503183025 61 30 4.0 10.0 0.00 0.00 0.00 40 1017.0
20260503183012 61 294 4.0 10.0 0.00 0.00 0.00 41 1017.2
20260503182509 60 313 3.0 16.0 0.00 0.00 0.00 43 1017.2
20260503182503 60 342 4.0 16.0 0.00 0.00 0.00 43 1017.0
20260503182009 59 342 2.0 16.0 0.00 0.00 0.00 42 1017.1
20260503182007 59 327 3.0 16.0 0.00 0.00 0.00 41 1017.0
20260503181521 60 2 7.0 12.0 0.00 0.00 0.00 41 1017.0
20260503181509 60 4 7.0 13.0 0.00 0.00 0.00 41 1017.2
20260503181009 59 33 3.0 11.0 0.00 0.00 0.00 43 1017.3
20260503181004 59 344 3.0 11.0 0.00 0.00 0.00 43 1016.9
20260503180508 59 302 6.0 14.0 0.00 0.00 0.00 41 1017.3
20260503180504 59 319 7.0 14.0 0.00 0.00 0.00 41 1017.0
20260503180026 59 298 4.0 17.0 0.00 0.00 0.00 42 1016.8
20260503180016 59 329 3.0 17.0 0.00 0.02 0.00 42 1017.1
20260503175508 59 292 7.0 17.0 0.00 0.02 0.00 42 1017.4
20260503175503 59 297 7.0 17.0 0.00 0.00 0.00 41 1017.0
20260503175013 60 310 5.0 19.0 0.00 0.00 0.00 43 1017.0
20260503175007 60 308 4.0 19.0 0.00 0.02 0.00 43 1017.3
20260503174525 59 314 9.0 19.0 0.00 0.01 0.00 43 1017.0
20260503174506 59 346 9.0 19.0 0.00 0.02 0.00 43 1017.4
20260503174006 59 303 7.0 12.0 0.00 0.02 0.00 41 1017.5
20260503174003 59 314 7.0 12.0 0.00 0.01 0.00 41 1017.1
20260503173505 59 68 3.0 15.0 0.00 0.01 0.00 42 1017.1
20260503173024 59 46 5.0 15.0 0.00 0.01 0.00 43 1017.2
20260503173016 59 327 5.0 15.0 0.00 0.02 0.00 44 1017.6
20260503172506 59 284 5.0 16.0 0.00 0.02 0.00 43 1017.6
20260503172013 58 316 7.0 17.0 0.00 0.02 0.00 42 1017.1
20260503172003 58 300 6.0 17.0 0.00 0.02 0.00 43 1017.6
20260503171523 58 336 5.0 17.0 0.00 0.02 0.00 45 1017.2
20260503171507 58 301 5.0 17.0 0.00 0.02 0.00 45 1017.6
20260503171007 58 304 9.0 16.0 0.00 0.02 0.00 44 1017.2
20260503171003 58 289 8.0 16.0 0.00 0.02 0.00 44 1017.7
20260503170508 58 307 6.0 14.0 0.00 0.02 0.00 44 1017.3
20260503170503 58 300 5.0 14.0 0.00 0.02 0.00 44 1017.8
20260503151007 56 319 3.0 14.0 0.00 0.07 0.00 45 1017.6
20260503150555 55 332 6.0 14.0 0.00 0.07 0.00 46 1018.2
20260503150503 56 306 7.0 14.0 0.00 0.07 0.00 43 1017.6
20260503131042 54 318 1.0 11.0 0.00 0.08 0.00 53 1017.7
20260503131004 54 332 1.0 11.0 0.00 0.08 0.00 52 1017.4
20260503130542 53 34 3.0 11.0 0.00 0.08 0.00 52 1017.7
20260503130506 53 4 3.0 11.0 0.00 0.08 0.00 52 1017.4
20260503110625 51 308 3.0 11.0 0.00 0.08 0.00 57 1016.4
20260503110510 51 60 5.0 11.0 0.00 0.08 0.00 56 1016.1
20260503090508 53 333 1.0 7.0 0.00 0.08 0.00 65 1013.7
20260503081535 51 323 0.0 4.0 0.00 0.08 0.00 70 1013.3
20260503081502 51 320 0.0 4.0 0.00 0.08 0.00 71 1013.6
20260503081007 51 332 1.0 4.0 0.00 0.08 0.00 70 1013.2
20260503081002 51 329 1.0 4.0 0.00 0.08 0.00 71 1013.5
20260503080512 51 294 2.0 4.0 0.00 0.08 0.00 71 1013.0
20260503080501 51 291 1.0 4.0 0.00 0.08 0.00 71 1013.4
20260503072559 49 315 0.0 3.0 0.00 0.08 0.00 78 1013.1
20260503072508 49 318 0.0 3.0 0.00 0.08 0.00 78 1012.8
20260503072057 49 305 0.0 2.0 0.00 0.08 0.00 78 1013.0
20260503072006 49 309 1.0 2.0 0.00 0.08 0.00 78 1012.8
20260503071605 49 308 0.0 2.0 0.00 0.08 0.00 78 1013.0
20260503071534 49 311 0.0 2.0 0.00 0.08 0.00 77 1012.7
20260503071055 49 278 0.0 2.0 0.00 0.08 0.00 77 1012.9
20260503071014 49 281 0.0 2.0 0.00 0.08 0.00 76 1012.6
20260503070555 49 299 0.0 2.0 0.00 0.08 0.00 76 1012.9
20260503070507 49 300 0.0 1.0 0.00 0.08 0.00 75 1012.5
20260503070112 49 296 0.0 1.0 0.00 0.08 0.00 75 1012.8
20260503060112 50 289 0.0 1.0 0.00 0.08 0.00 72 1012.4
20260503055049 51 312 0.0 1.0 0.00 0.08 0.00 71 1012.4
20260503055008 51 315 0.0 1.0 0.00 0.08 0.00 71 1012.1
20260503054545 51 316 0.0 1.0 0.00 0.08 0.00 70 1012.4
20260503054514 51 319 0.0 1.0 0.00 0.08 0.00 70 1012.0
20260503054044 52 316 0.0 3.0 0.00 0.08 0.00 69 1012.5
20260503054006 52 319 0.0 3.0 0.00 0.08 0.00 69 1012.1
20260503053542 52 285 0.0 3.0 0.00 0.08 0.00 69 1012.5
20260503053508 52 295 0.0 4.0 0.00 0.08 0.00 68 1012.2
20260503053042 52 287 0.0 4.0 0.00 0.08 0.00 68 1012.7
20260503053006 52 285 1.0 4.0 0.00 0.08 0.00 68 1012.3
20260503052540 52 305 1.0 4.0 0.00 0.08 0.00 68 1012.7
20260503052509 52 275 1.0 4.0 0.00 0.08 0.00 68 1012.3
20260503052040 53 299 0.0 6.0 0.00 0.08 0.00 67 1012.7
20260503052010 53 302 0.0 6.0 0.00 0.08 0.00 67 1012.3
20260503051538 53 301 1.0 6.0 0.00 0.08 0.00 67 1012.8
20260503051508 53 304 2.0 6.0 0.00 0.08 0.00 66 1012.4
20260503051038 53 315 1.0 6.0 0.00 0.08 0.00 67 1012.8
20260503051006 53 311 2.0 6.0 0.00 0.08 0.00 66 1012.4
20260503050538 53 312 1.0 5.0 0.00 0.08 0.00 67 1012.7
20260503050507 53 335 1.0 5.0 0.00 0.08 0.00 67 1012.3
20260503050037 53 304 1.0 5.0 0.00 0.08 0.00 67 1012.7
20260503050008 53 305 2.0 5.0 0.00 0.08 0.00 66 1012.3
20260503045536 53 302 1.0 4.0 0.00 0.08 0.00 68 1012.7
20260503045506 54 305 1.0 4.0 0.00 0.08 0.00 67 1012.3
20260503045035 54 290 1.0 4.0 0.00 0.08 0.00 68 1012.7
20260503045015 54 293 2.0 4.0 0.00 0.08 0.00 67 1012.4
20260503044540 54 311 1.0 4.0 0.00 0.08 0.00 68 1012.8
20260503044523 54 305 1.0 3.0 0.00 0.08 0.00 68 1012.4
20260503044035 54 325 0.0 3.0 0.00 0.08 0.00 69 1012.7
20260503044005 54 300 1.0 3.0 0.00 0.08 0.00 68 1012.4
20260503043534 54 312 1.0 3.0 0.00 0.08 0.00 69 1012.8
20260503043502 54 285 2.0 3.0 0.00 0.08 0.00 68 1012.3
20260503043033 54 290 0.0 4.0 0.00 0.08 0.00 69 1012.7
20260503043014 54 293 1.0 5.0 0.00 0.08 0.00 68 1012.3
20260503042532 54 295 1.0 5.0 0.00 0.08 0.00 69 1012.7
20260503042505 54 306 1.0 5.0 0.00 0.08 0.00 68 1012.3
20260503042032 54 294 1.0 5.0 0.00 0.08 0.00 68 1012.9
20260503042002 54 310 1.0 5.0 0.00 0.08 0.00 68 1012.4
20260503041532 54 325 1.0 5.0 0.00 0.08 0.00 68 1012.8
20260503041516 54 298 1.0 5.0 0.00 0.08 0.00 68 1012.4
20260503041032 54 304 2.0 5.0 0.00 0.08 0.00 68 1013.0
20260503041005 54 288 3.0 5.0 0.00 0.08 0.00 68 1012.5
20260503040529 54 327 0.0 4.0 0.00 0.08 0.00 68 1012.8
20260503040504 54 331 1.0 4.0 0.00 0.08 0.00 68 1012.2
20260503040031 54 299 2.0 4.0 0.00 0.08 0.08 68 1012.9
20260503040014 54 298 2.0 4.0 0.00 0.08 0.00 67 1012.4
20260503035529 54 290 0.0 4.0 0.00 0.08 0.08 68 1012.9
20260503035506 54 288 1.0 4.0 0.00 0.08 0.08 67 1012.4
20260503035027 54 302 2.0 4.0 0.00 0.08 0.08 67 1012.9
20260503035003 54 311 2.0 4.0 0.00 0.08 0.08 67 1012.5
20260503034527 54 295 0.0 2.0 0.00 0.08 0.08 68 1012.8
20260503034521 54 302 0.0 2.0 0.00 0.08 0.08 67 1012.3
20260503034026 55 308 0.0 5.0 0.00 0.08 0.08 67 1012.6
20260503034007 55 303 0.0 5.0 0.00 0.08 0.08 66 1012.2
20260503033526 55 318 0.0 5.0 0.00 0.08 0.08 67 1012.7
20260503033503 55 297 0.0 5.0 0.00 0.08 0.08 66 1012.3
20260503033026 55 300 0.0 3.0 0.00 0.08 0.08 66 1012.7
20260503033018 55 302 1.0 5.0 0.00 0.08 0.08 66 1012.2
20260503032526 55 299 1.0 5.0 0.00 0.08 0.08 67 1012.6
20260503032510 55 314 1.0 5.0 0.00 0.08 0.08 66 1012.2
20260503032026 55 310 1.0 4.0 0.00 0.08 0.08 67 1012.5
20260503032002 55 284 1.0 3.0 0.00 0.08 0.08 67 1012.1
20260503031527 55 295 0.0 3.0 0.00 0.08 0.08 67 1012.4
20260503031520 55 301 0.0 3.0 0.00 0.08 0.08 67 1012.0
20260503031026 55 287 1.0 3.0 0.00 0.08 0.08 67 1012.5
20260503031009 55 295 1.0 3.0 0.00 0.08 0.08 66 1012.2
20260503030525 55 318 0.0 3.0 0.00 0.08 0.08 66 1012.4
20260503030504 55 321 0.0 3.0 0.00 0.08 0.08 66 1012.1
20260503030026 55 38 0.0 2.0 0.00 0.08 0.08 66 1012.5
20260503030019 55 41 0.0 2.0 0.00 0.08 0.08 66 1012.2
20260503025525 55 307 0.0 2.0 0.00 0.08 0.08 65 1012.6
20260503025507 55 297 0.0 2.0 0.00 0.08 0.08 65 1012.3
20260503025025 55 350 0.0 1.0 0.00 0.08 0.08 65 1012.8
20260503025003 55 357 0.0 1.0 0.00 0.08 0.08 65 1012.3
20260503024526 55 278 0.0 1.0 0.00 0.08 0.08 66 1012.7
20260503024521 55 281 0.0 1.0 0.00 0.08 0.08 65 1012.3
20260503024025 55 335 0.0 1.0 0.00 0.08 0.08 65 1012.8
20260503024010 55 338 0.0 1.0 0.00 0.08 0.08 65 1012.4
20260503023524 55 252 0.0 1.0 0.00 0.08 0.08 65 1012.7
20260503023504 55 255 0.0 1.0 0.00 0.08 0.08 64 1012.3
20260503023024 55 353 0.0 1.0 0.00 0.08 0.08 64 1012.3
20260503022524 55 324 0.0 3.0 0.00 0.08 0.08 64 1012.6
20260503022509 55 327 0.0 3.0 0.00 0.08 0.08 64 1012.3
20260503022031 55 313 0.0 3.0 0.00 0.08 0.08 64 1012.7
20260503022010 55 352 1.0 3.0 0.00 0.08 0.08 64 1012.3
20260503021525 55 335 0.0 2.0 0.00 0.08 0.08 64 1012.6
20260503021026 55 349 0.0 4.0 0.00 0.08 0.08 64 1012.7
20260503021010 55 352 0.0 4.0 0.00 0.08 0.08 63 1012.4
20260503020524 55 221 1.0 4.0 0.00 0.08 0.08 64 1012.7
20260503020508 55 286 1.0 4.0 0.00 0.08 0.08 63 1012.3
20260503020024 55 311 0.0 4.0 0.00 0.08 0.08 64 1012.7
20260503020022 55 305 0.0 4.0 0.00 0.08 0.08 63 1012.4
20260503015524 55 299 1.0 4.0 0.00 0.08 0.08 64 1012.7
20260503015510 55 6 1.0 4.0 0.00 0.08 0.08 63 1012.3
20260503015023 55 326 1.0 6.0 0.00 0.08 0.08 64 1012.6
20260503015005 55 302 1.0 6.0 0.00 0.08 0.08 63 1012.3
20260503014526 55 58 1.0 6.0 0.00 0.08 0.08 63 1012.3
20260503014523 55 302 0.0 6.0 0.00 0.08 0.08 63 1012.6
20260503014023 55 353 0.0 6.0 0.00 0.08 0.08 63 1012.6
20260503014010 55 338 0.0 6.0 0.00 0.08 0.08 62 1012.2
20260503013523 55 340 1.0 3.0 0.00 0.08 0.08 63 1012.4
20260503013503 55 331 1.0 3.0 0.00 0.08 0.08 62 1012.1
20260503013033 55 4 0.0 3.0 0.00 0.08 0.08 62 1012.0
20260503013026 55 303 0.0 3.0 0.00 0.08 0.08 63 1012.3
20260503012523 55 333 0.0 6.0 0.00 0.08 0.08 63 1012.2
20260503012504 55 336 0.0 6.0 0.00 0.08 0.08 63 1011.8
20260503012023 55 22 1.0 6.0 0.00 0.08 0.08 63 1012.3
20260503012008 55 25 1.0 6.0 0.00 0.08 0.08 62 1011.8
20260503011530 55 357 1.0 4.0 0.00 0.08 0.08 62 1011.8
20260503011524 55 355 0.0 4.0 0.00 0.08 0.08 63 1012.3
20260503011022 55 351 0.0 4.0 0.00 0.08 0.08 63 1012.3
20260503011004 55 31 0.0 4.0 0.00 0.08 0.08 62 1012.0
20260503010522 55 326 0.0 2.0 0.00 0.08 0.08 63 1012.4
20260503010505 55 329 0.0 5.0 0.00 0.08 0.08 62 1012.0
20260503010024 55 332 0.0 5.0 0.00 0.08 0.08 62 1012.0
20260503010022 55 15 0.0 5.0 0.00 0.08 0.08 63 1012.4
20260503005522 55 318 0.0 5.0 0.00 0.08 0.08 63 1012.3
20260503005502 55 320 1.0 5.0 0.00 0.08 0.08 62 1011.9
20260503005025 55 351 1.0 4.0 0.00 0.08 0.08 62 1012.3
20260503005007 55 354 1.0 6.0 0.00 0.08 0.08 62 1011.9
20260503004527 55 72 1.0 11.0 0.00 0.08 0.08 62 1011.9
20260503004522 55 70 0.0 11.0 0.00 0.08 0.08 63 1012.3
20260503004018 55 18 3.0 11.0 0.00 0.08 0.08 62 1012.2
20260503004002 55 332 3.0 11.0 0.00 0.08 0.08 62 1011.8
20260503003518 55 308 1.0 4.0 0.00 0.08 0.08 63 1012.0
20260503003505 55 27 1.0 4.0 0.00 0.08 0.08 62 1011.6
20260503003025 55 354 0.0 2.0 0.00 0.08 0.08 63 1011.7
20260503003019 55 342 0.0 2.0 0.00 0.08 0.08 64 1012.1
20260503002519 55 39 0.0 5.0 0.00 0.08 0.08 64 1012.0
20260503002505 55 293 0.0 5.0 0.00 0.08 0.08 63 1011.6
20260503002017 55 351 1.0 5.0 0.00 0.08 0.08 63 1011.9
20260503002008 55 311 1.0 5.0 0.00 0.08 0.08 62 1011.5
20260503001527 55 348 1.0 8.0 0.00 0.08 0.08 63 1011.4
20260503001518 55 346 1.0 8.0 0.00 0.08 0.08 63 1011.8
20260503001017 55 318 0.0 8.0 0.00 0.08 0.08 63 1011.8
20260503001007 55 319 1.0 8.0 0.00 0.08 0.08 63 1011.4
20260503000518 55 330 3.0 8.0 0.00 0.08 0.08 63 1011.8
20260503000505 55 334 3.0 8.0 0.00 0.08 0.08 62 1011.3
20260503000033 55 48 1.0 6.0 0.00 0.08 0.08 62 1011.3
20260503000019 55 359 1.0 6.0 0.00 0.08 0.08 62 1011.7
20260502235517 55 20 2.0 6.0 0.00 0.08 0.08 62 1011.7
20260502235503 55 38 2.0 6.0 0.00 0.08 0.08 61 1011.3
20260502235020 55 304 1.0 5.0 0.00 0.08 0.08 60 1011.7
20260502235010 55 338 2.0 5.0 0.00 0.08 0.08 59 1011.3
20260502234527 55 40 1.0 5.0 0.00 0.08 0.08 58 1011.3
20260502234516 55 37 1.0 5.0 0.00 0.08 0.08 58 1011.7
20260502234016 55 12 0.0 5.0 0.00 0.08 0.08 57 1011.6
20260502234006 55 342 0.0 5.0 0.00 0.08 0.08 57 1011.3
20260502233515 55 29 0.0 4.0 0.00 0.08 0.08 56 1011.5
20260502233508 55 32 1.0 4.0 0.00 0.08 0.08 56 1011.2
20260502233026 55 5 1.0 7.0 0.00 0.08 0.08 55 1011.2
20260502233019 55 284 0.0 7.0 0.00 0.08 0.08 56 1011.6
20260502232515 55 29 1.0 7.0 0.00 0.08 0.08 55 1011.5
20260502232509 55 38 2.0 7.0 0.00 0.08 0.08 55 1011.1
20260502232016 55 326 0.0 6.0 0.00 0.08 0.08 57 1011.6
20260502232009 55 50 0.0 5.0 0.00 0.08 0.08 56 1011.2
20260502231529 55 309 0.0 6.0 0.00 0.08 0.08 56 1011.2
20260502231516 55 11 0.0 6.0 0.00 0.08 0.08 57 1011.6
20260502231014 55 330 1.0 8.0 0.00 0.08 0.08 57 1011.6
20260502231007 55 312 1.0 8.0 0.00 0.08 0.08 57 1011.1
20260502230517 56 310 1.0 8.0 0.00 0.08 0.08 57 1011.4
20260502230511 56 9 1.0 8.0 0.00 0.08 0.08 56 1011.2
20260502230028 55 307 1.0 7.0 0.00 0.08 0.08 57 1011.1
20260502230019 55 304 1.0 7.0 0.00 0.08 0.08 57 1011.5
20260502225513 55 325 2.0 7.0 0.00 0.08 0.08 58 1011.5
20260502225507 56 52 2.0 6.0 0.00 0.08 0.08 57 1011.1
20260502225016 56 131 0.0 5.0 0.00 0.08 0.08 58 1011.6
20260502225008 56 100 1.0 5.0 0.00 0.08 0.08 57 1011.1
20260502224527 56 49 1.0 8.0 0.00 0.08 0.08 58 1011.2
20260502224513 56 27 1.0 5.0 0.00 0.08 0.08 58 1011.5